Terug naar catalogus

STARLINK-37152

ActiefCommunicatieSSO
NORAD 68616·PAYLOAD·🇺🇸 United States

Gelanceerd Apr 5, 2026 vanaf Vandenberg Space Force Base

Loading…

Volgende Passages (komende 24 uur)

TLE

VersSource: CelesTrak SupGP

Epoch: Sep 14, 2026, 21:40 UTC

1 68616C 26073Q   26257.90326389  .00087830  00000+0  27270-2 0  2579
2 68616  97.2851  96.0099 0001783  96.2115 271.2581 15.33388074    16

Volg STARLINK-37152 in realtime met AllMySat

Download on the App Store